JAL565 RJTT-RJCM

Flight info

Callsign JAL565
Flight time 1h 19m
Altitude 39000
Route BRUCE AGRIS Y11 YTE Y111 OZORA
Aircraft B763/H-SDE3FGHIM3RWXY/LB1

Departure

Time 2026-05-07 15:54
Airport Tokyo Haneda International Airport (RJTT)

Arrival

Time 2026-05-07 17:14
Airport Memanbetsu Airport (RJCM)
Time Latitude Longitude Altitude Speed Heading
2026-05-07 15:37 35.55535 139.78727 36 ft 0 kts 149°
2026-05-07 15:47 35.55546 139.78720 36 ft 4 kts 147°
2026-05-07 15:47 35.55568 139.78702 36 ft 4 kts 142°
2026-05-07 15:48 35.55585 139.78687 36 ft 4 kts 173°
2026-05-07 15:48 35.55608 139.78689 36 ft 4 kts 199°
2026-05-07 15:48 35.55627 139.78706 36 ft 4 kts 233°
2026-05-07 15:48 35.55640 139.78730 36 ft 1 kts 240°
2026-05-07 15:49 35.55642 139.78735 36 ft 0 kts 240°
2026-05-07 15:51 35.55641 139.78733 36 ft 2 kts 240°
2026-05-07 15:51 35.55658 139.78695 36 ft 12 kts 322°
2026-05-07 15:51 35.55779 139.78603 36 ft 25 kts 329°
2026-05-07 15:51 35.55931 139.78494 36 ft 25 kts 330°
2026-05-07 15:52 35.56078 139.78398 36 ft 23 kts 333°
2026-05-07 15:52 35.56214 139.78311 36 ft 21 kts 330°
2026-05-07 15:52 35.56334 139.78241 36 ft 18 kts 10°
2026-05-07 15:52 35.56411 139.78333 36 ft 15 kts 56°
2026-05-07 15:53 35.56463 139.78431 36 ft 11 kts 59°
2026-05-07 15:53 35.56498 139.78504 36 ft 9 kts 58°
2026-05-07 15:53 35.56528 139.78564 36 ft 7 kts 58°
2026-05-07 15:53 35.56552 139.78611 36 ft 6 kts 58°
2026-05-07 15:54 35.56556 139.78651 36 ft 6 kts 108°
2026-05-07 15:54 35.56480 139.78734 36 ft 39 kts 149°
2026-05-07 15:54 35.55903 139.79146 36 ft 150 kts 151°
2026-05-07 15:54 35.54820 139.79923 749 ft 187 kts 150°
2026-05-07 15:55 35.53706 139.80829 1690 ft 202 kts 144°
2026-05-07 15:55 35.52654 139.82052 2602 ft 214 kts 136°
2026-05-07 15:55 35.51611 139.83443 3476 ft 228 kts 136°
2026-05-07 15:55 35.50478 139.84884 4364 ft 241 kts 137°
2026-05-07 15:56 35.49410 139.86514 5220 ft 257 kts 120°
2026-05-07 15:56 35.48966 139.88677 6209 ft 270 kts 93°
2026-05-07 15:56 35.49325 139.90982 7142 ft 282 kts 67°
2026-05-07 15:56 35.50468 139.92995 8027 ft 295 kts 43°
2026-05-07 15:57 35.52234 139.94340 8938 ft 304 kts 19°
2026-05-07 15:57 35.54266 139.94989 9998 ft 309 kts
2026-05-07 15:57 35.56425 139.95409 10977 ft 320 kts
2026-05-07 15:57 35.58683 139.95750 11835 ft 333 kts
2026-05-07 15:58 35.61037 139.96032 12647 ft 346 kts
2026-05-07 15:58 35.63485 139.96230 13414 ft 359 kts 360°
2026-05-07 15:58 35.66035 139.96383 14151 ft 373 kts 359°
2026-05-07 15:58 35.68675 139.96531 14762 ft 388 kts 359°
2026-05-07 15:59 35.71404 139.96691 14952 ft 396 kts 359°
2026-05-07 15:59 35.74152 139.96495 14983 ft 394 kts 347°
2026-05-07 15:59 35.76812 139.95649 15180 ft 398 kts 338°
2026-05-07 15:59 35.79417 139.94488 16234 ft 397 kts 335°
2026-05-07 16:00 35.81970 139.93273 17170 ft 400 kts 335°
2026-05-07 16:00 35.84576 139.92007 18048 ft 405 kts 334°
2026-05-07 16:00 35.87217 139.90712 18880 ft 410 kts 334°
2026-05-07 16:00 35.89883 139.89401 19694 ft 415 kts 334°
2026-05-07 16:01 35.92587 139.88067 20506 ft 420 kts 334°
2026-05-07 16:01 35.95322 139.86730 21285 ft 426 kts 335°
2026-05-07 16:01 35.98244 139.85877 22147 ft 435 kts 350°
2026-05-07 16:01 36.01256 139.86000 22912 ft 445 kts
2026-05-07 16:02 36.04284 139.86960 23556 ft 455 kts 16°
2026-05-07 16:02 36.07277 139.88402 24154 ft 464 kts 20°
2026-05-07 16:02 36.10255 139.90008 24751 ft 470 kts 21°
2026-05-07 16:02 36.13282 139.91621 25343 ft 475 kts 20°
2026-05-07 16:03 36.16363 139.93180 25938 ft 480 kts 19°
2026-05-07 16:03 36.19531 139.94512 26457 ft 483 kts 10°
2026-05-07 16:03 36.22851 139.95125 26965 ft 484 kts
2026-05-07 16:03 36.26223 139.95185 27538 ft 484 kts 354°
2026-05-07 16:04 36.29596 139.94977 28144 ft 486 kts 352°
2026-05-07 16:04 36.32940 139.94708 28723 ft 489 kts 352°
2026-05-07 16:04 36.36354 139.94470 29259 ft 493 kts 353°
2026-05-07 16:04 36.39797 139.94296 29863 ft 494 kts 353°
2026-05-07 16:05 36.43216 139.94220 30693 ft 491 kts 355°
2026-05-07 16:05 36.46629 139.94301 31444 ft 489 kts 357°
2026-05-07 16:05 36.50036 139.94471 32104 ft 488 kts 358°
2026-05-07 16:05 36.53424 139.94668 32725 ft 486 kts 358°
2026-05-07 16:06 36.56800 139.94859 33307 ft 485 kts 358°
2026-05-07 16:06 36.60166 139.95031 33877 ft 484 kts 358°
2026-05-07 16:06 36.63528 139.95186 34429 ft 482 kts 357°
2026-05-07 16:06 36.66845 139.95328 34936 ft 482 kts 357°
2026-05-07 16:07 36.70229 139.95469 35440 ft 481 kts 357°
2026-05-07 16:07 36.73572 139.95607 35906 ft 480 kts 357°
2026-05-07 16:07 36.76867 139.95746 36365 ft 479 kts 357°
2026-05-07 16:07 36.80207 139.95888 36808 ft 479 kts 357°
2026-05-07 16:08 36.83538 139.96031 37218 ft 479 kts 357°
2026-05-07 16:08 36.86867 139.96202 37633 ft 479 kts 359°
2026-05-07 16:08 36.90172 139.96661 38123 ft 479 kts
2026-05-07 16:08 36.93466 139.97404 38502 ft 481 kts
2026-05-07 16:09 36.96744 139.98305 38787 ft 483 kts
2026-05-07 16:09 37.03370 140.00212 38904 ft 494 kts
2026-05-07 16:10 37.10120 140.02034 38903 ft 496 kts
2026-05-07 16:10 37.16855 140.03767 38901 ft 496 kts
2026-05-07 16:11 37.23632 140.05501 38901 ft 497 kts
2026-05-07 16:11 37.30412 140.07252 38899 ft 498 kts
2026-05-07 16:12 37.37214 140.09020 38899 ft 499 kts
2026-05-07 16:12 37.44009 140.10790 38898 ft 499 kts
2026-05-07 16:13 37.50828 140.12569 38896 ft 500 kts
2026-05-07 16:13 37.57609 140.14339 38893 ft 500 kts
2026-05-07 16:14 37.64437 140.16123 38890 ft 501 kts
2026-05-07 16:14 37.71273 140.17913 38886 ft 501 kts
2026-05-07 16:15 37.78079 140.19698 38882 ft 502 kts
2026-05-07 16:15 37.84919 140.21495 38881 ft 502 kts
2026-05-07 16:16 37.91764 140.23298 38883 ft 502 kts
2026-05-07 16:16 37.98591 140.25099 38880 ft 502 kts
2026-05-07 16:17 38.05438 140.26908 38877 ft 502 kts
2026-05-07 16:17 38.12259 140.28714 38876 ft 502 kts
2026-05-07 16:18 38.19075 140.30522 38872 ft 502 kts
2026-05-07 16:18 38.24771 140.32036 38872 ft 503 kts
2026-05-07 16:19 38.32759 140.34162 38875 ft 504 kts
2026-05-07 16:19 38.39490 140.36688 38868 ft 508 kts 22°
2026-05-07 16:20 38.45412 140.41729 38887 ft 517 kts 38°
2026-05-07 16:20 38.49938 140.46861 38884 ft 521 kts 41°
2026-05-07 16:21 38.55293 140.53015 38882 ft 521 kts 39°
2026-05-07 16:21 38.60861 140.59046 38881 ft 521 kts 38°
2026-05-07 16:22 38.66407 140.64870 38876 ft 522 kts 37°
2026-05-07 16:22 38.72019 140.70770 38870 ft 522 kts 38°
2026-05-07 16:23 38.77613 140.76701 38873 ft 522 kts 38°
2026-05-07 16:23 38.83182 140.82639 38875 ft 523 kts 38°
2026-05-07 16:24 38.88778 140.88617 38878 ft 523 kts 38°
2026-05-07 16:24 38.94378 140.94608 38879 ft 524 kts 38°
2026-05-07 16:25 38.99976 141.00608 38880 ft 524 kts 38°
2026-05-07 16:25 39.05575 141.06621 38879 ft 524 kts 38°
2026-05-07 16:26 39.11182 141.12657 38879 ft 525 kts 38°
2026-05-07 16:26 39.16766 141.18681 38872 ft 526 kts 38°
2026-05-07 16:27 39.22390 141.24761 38873 ft 526 kts 38°
2026-05-07 16:27 39.27982 141.30819 38874 ft 527 kts 38°
2026-05-07 16:28 39.33603 141.36923 38873 ft 528 kts 38°
2026-05-07 16:28 39.39236 141.43053 38874 ft 529 kts 38°
2026-05-07 16:29 39.44871 141.49198 38876 ft 530 kts 38°
2026-05-07 16:29 39.50524 141.55375 38874 ft 531 kts 38°
2026-05-07 16:30 39.56141 141.61528 38871 ft 532 kts 38°
2026-05-07 16:30 39.61805 141.67747 38870 ft 533 kts 38°
2026-05-07 16:31 39.67476 141.73986 38868 ft 534 kts 38°
2026-05-07 16:31 39.73149 141.80240 38867 ft 535 kts 38°
2026-05-07 16:32 39.78827 141.86516 38865 ft 536 kts 38°
2026-05-07 16:32 39.84512 141.92814 38863 ft 537 kts 38°
2026-05-07 16:33 39.89649 141.99870 38863 ft 539 kts 52°
2026-05-07 16:33 39.93946 142.07815 38861 ft 539 kts 57°
2026-05-07 16:34 39.98082 142.15974 38858 ft 539 kts 57°
2026-05-07 16:34 40.02329 142.24040 38856 ft 539 kts 55°
2026-05-07 16:35 40.06673 142.32040 38856 ft 539 kts 54°
2026-05-07 16:35 40.11029 142.40020 38854 ft 539 kts 54°
2026-05-07 16:36 40.15366 142.48021 38854 ft 540 kts 55°
2026-05-07 16:36 40.19700 142.56067 38853 ft 540 kts 55°
2026-05-07 16:37 40.23995 142.64066 38852 ft 540 kts 55°
2026-05-07 16:37 40.28311 142.72123 38851 ft 540 kts 55°
2026-05-07 16:38 40.32628 142.80198 38852 ft 540 kts 55°
2026-05-07 16:38 40.36932 142.88269 38850 ft 540 kts 55°
2026-05-07 16:39 40.41213 142.96318 38850 ft 540 kts 55°
2026-05-07 16:39 40.45504 143.04407 38849 ft 540 kts 55°
2026-05-07 16:40 40.49796 143.12518 38849 ft 540 kts 55°
2026-05-07 16:40 40.54085 143.20647 38848 ft 540 kts 55°
2026-05-07 16:41 40.58917 143.28146 38840 ft 537 kts 34°
2026-05-07 16:41 40.62014 143.30745 38856 ft 533 kts 21°
2026-05-07 16:41 40.65421 143.32600 38860 ft 526 kts 12°
2026-05-07 16:42 40.72420 143.35010 38847 ft 515 kts
2026-05-07 16:42 40.79393 143.37163 38832 ft 513 kts
2026-05-07 16:43 40.86307 143.39674 38830 ft 515 kts
2026-05-07 16:43 40.93148 143.42384 38830 ft 517 kts
2026-05-07 16:44 41.00055 143.45145 38829 ft 517 kts
2026-05-07 16:44 41.06962 143.47873 38827 ft 516 kts
2026-05-07 16:45 41.13806 143.50560 38827 ft 517 kts
2026-05-07 16:45 41.20708 143.53273 38826 ft 516 kts
2026-05-07 16:46 41.27610 143.55998 38826 ft 516 kts
2026-05-07 16:46 41.34504 143.58727 38825 ft 516 kts
2026-05-07 16:47 41.41341 143.61440 38823 ft 516 kts
2026-05-07 16:47 41.48231 143.64179 38823 ft 516 kts
2026-05-07 16:48 41.55107 143.66919 38822 ft 515 kts
2026-05-07 16:48 41.61954 143.69658 38804 ft 505 kts
2026-05-07 16:48 41.65313 143.71009 38223 ft 508 kts
2026-05-07 16:49 41.68741 143.72370 37274 ft 518 kts
2026-05-07 16:49 41.72179 143.73733 36335 ft 524 kts
2026-05-07 16:49 41.75740 143.75151 35448 ft 528 kts
2026-05-07 16:49 41.79220 143.76547 34785 ft 526 kts
2026-05-07 16:50 41.82731 143.77964 34080 ft 525 kts
2026-05-07 16:50 41.86219 143.79373 33405 ft 522 kts
2026-05-07 16:50 41.89693 143.80774 32565 ft 523 kts
2026-05-07 16:50 41.93183 143.82179 31737 ft 523 kts
2026-05-07 16:51 41.96673 143.83584 30911 ft 523 kts
2026-05-07 16:51 42.00152 143.84986 30094 ft 522 kts 10°
2026-05-07 16:51 42.03635 143.86394 29270 ft 521 kts 10°
2026-05-07 16:51 42.07094 143.87796 28555 ft 517 kts 10°
2026-05-07 16:52 42.10465 143.89167 28007 ft 509 kts 10°
2026-05-07 16:52 42.13836 143.90541 27441 ft 501 kts 10°
2026-05-07 16:52 42.17158 143.91893 26808 ft 496 kts 10°
2026-05-07 16:52 42.20449 143.93230 26174 ft 491 kts
2026-05-07 16:53 42.23702 143.94552 25538 ft 486 kts
2026-05-07 16:53 42.26932 143.95865 24902 ft 481 kts
2026-05-07 16:53 42.30123 143.97164 24288 ft 477 kts
2026-05-07 16:53 42.33244 143.98430 23681 ft 472 kts
2026-05-07 16:54 42.36381 143.99688 23074 ft 467 kts
2026-05-07 16:54 42.39484 144.00925 22466 ft 463 kts
2026-05-07 16:54 42.42558 144.02151 21863 ft 458 kts
2026-05-07 16:54 42.45605 144.03367 21266 ft 454 kts 10°
2026-05-07 16:55 42.48626 144.04577 20677 ft 450 kts 10°
2026-05-07 16:55 42.51622 144.05780 20091 ft 446 kts 10°
2026-05-07 16:55 42.54581 144.06967 19503 ft 441 kts 10°
2026-05-07 16:55 42.57502 144.07997 18880 ft 436 kts
2026-05-07 16:56 42.60458 144.08841 18293 ft 430 kts
2026-05-07 16:56 42.63390 144.09591 17732 ft 425 kts
2026-05-07 16:56 42.69152 144.11068 16646 ft 416 kts
2026-05-07 16:57 42.71988 144.11831 16088 ft 412 kts
2026-05-07 16:57 42.74751 144.12590 15552 ft 408 kts
2026-05-07 16:57 42.77527 144.13357 15005 ft 404 kts
2026-05-07 16:57 42.80273 144.14116 14470 ft 399 kts
2026-05-07 16:58 42.82990 144.14856 13932 ft 395 kts
2026-05-07 16:58 42.85675 144.15549 13392 ft 391 kts
2026-05-07 16:58 42.88329 144.16215 12952 ft 384 kts
2026-05-07 16:58 42.90891 144.16857 12629 ft 374 kts
2026-05-07 16:59 42.93419 144.17494 12386 ft 363 kts
2026-05-07 16:59 42.95876 144.18118 12135 ft 353 kts
2026-05-07 16:59 42.98211 144.18717 11552 ft 333 kts
2026-05-07 16:59 43.00445 144.19285 10829 ft 319 kts
2026-05-07 17:00 43.02608 144.19828 10282 ft 315 kts
2026-05-07 17:00 43.04794 144.20162 10081 ft 315 kts 358°
2026-05-07 17:00 43.06937 144.20193 9827 ft 299 kts 354°
2026-05-07 17:00 43.09009 144.20112 8883 ft 296 kts 354°
2026-05-07 17:01 43.11058 144.20031 7983 ft 293 kts 355°
2026-05-07 17:01 43.13083 144.20001 7148 ft 288 kts 356°
2026-05-07 17:01 43.15025 144.19999 6486 ft 278 kts 357°
2026-05-07 17:01 43.16951 144.19999 5799 ft 278 kts 357°
2026-05-07 17:02 43.18874 144.19989 5535 ft 274 kts 357°
2026-05-07 17:02 43.20768 144.19976 5248 ft 271 kts 358°
2026-05-07 17:02 43.22649 144.19964 4947 ft 269 kts 358°
2026-05-07 17:02 43.24514 144.19952 4661 ft 267 kts 358°
2026-05-07 17:03 43.26368 144.19941 4365 ft 265 kts 358°
2026-05-07 17:03 43.28200 144.19930 4173 ft 259 kts 358°
2026-05-07 17:03 43.29975 144.19920 3989 ft 253 kts 359°
2026-05-07 17:03 43.31727 144.19910 3734 ft 250 kts 359°
2026-05-07 17:04 43.33465 144.19899 3464 ft 249 kts 359°
2026-05-07 17:04 43.35190 144.19890 3207 ft 247 kts 359°
2026-05-07 17:04 43.36325 144.19883 3100 ft 245 kts 359°
2026-05-07 17:04 43.38033 144.19873 3035 ft 246 kts 359°
2026-05-07 17:05 43.40300 144.19858 3054 ft 244 kts 360°
2026-05-07 17:05 43.41996 144.19848 3188 ft 244 kts 360°
2026-05-07 17:05 43.43699 144.19839 3396 ft 246 kts 360°
2026-05-07 17:05 43.45411 144.19829 3465 ft 246 kts 360°
2026-05-07 17:06 43.47124 144.19819 3490 ft 246 kts 360°
2026-05-07 17:06 43.48258 144.19809 3496 ft 246 kts 359°
2026-05-07 17:06 43.49970 144.19719 3500 ft 246 kts 357°
2026-05-07 17:06 43.51637 144.19591 3491 ft 234 kts 356°
2026-05-07 17:07 43.53225 144.19463 3488 ft 225 kts 356°
2026-05-07 17:07 43.54790 144.19335 3494 ft 224 kts 356°
2026-05-07 17:07 43.56297 144.19210 3514 ft 209 kts 356°
2026-05-07 17:07 43.57697 144.19094 3486 ft 195 kts 356°
2026-05-07 17:08 43.59011 144.18985 3470 ft 185 kts 356°
2026-05-07 17:08 43.60294 144.18881 3492 ft 185 kts 356°
2026-05-07 17:08 43.61578 144.18777 3499 ft 185 kts 356°
2026-05-07 17:08 43.62862 144.18670 3500 ft 185 kts 356°
2026-05-07 17:09 43.64146 144.18558 3500 ft 185 kts 356°
2026-05-07 17:09 43.65433 144.18446 3500 ft 185 kts 356°
2026-05-07 17:09 43.66713 144.18335 3500 ft 185 kts 356°
2026-05-07 17:09 43.67979 144.18226 3500 ft 185 kts 356°
2026-05-07 17:10 43.69263 144.18115 3500 ft 185 kts 356°
2026-05-07 17:10 43.70553 144.18003 3500 ft 185 kts 356°
2026-05-07 17:10 43.71833 144.17890 3500 ft 185 kts 356°
2026-05-07 17:10 43.73113 144.17776 3482 ft 181 kts 356°
2026-05-07 17:11 43.74374 144.17664 3226 ft 183 kts 356°
2026-05-07 17:11 43.75642 144.17552 2990 ft 183 kts 356°
2026-05-07 17:11 43.76915 144.17439 2703 ft 186 kts 356°
2026-05-07 17:11 43.78225 144.17323 2358 ft 188 kts 356°
2026-05-07 17:12 43.79493 144.17211 2142 ft 181 kts 356°
2026-05-07 17:12 43.80744 144.17100 2061 ft 180 kts 356°
2026-05-07 17:12 43.82000 144.16989 1923 ft 179 kts 356°
2026-05-07 17:12 43.83195 144.16891 1590 ft 172 kts 356°
2026-05-07 17:13 43.84392 144.16810 1135 ft 171 kts 357°
2026-05-07 17:13 43.85575 144.16680 702 ft 168 kts 355°
2026-05-07 17:13 43.86736 144.16571 286 ft 164 kts 353°
2026-05-07 17:13 43.87817 144.16417 136 ft 143 kts 353°
2026-05-07 17:14 43.88596 144.16316 124 ft 64 kts 356°
2026-05-07 17:14 43.88969 144.16276 124 ft 38 kts 354°
2026-05-07 17:14 43.89114 144.16241 124 ft 14 kts 325°
2026-05-07 17:14 43.89140 144.16181 124 ft 3 kts 287°
2026-05-07 17:15 43.89144 144.16160 124 ft 2 kts 287°
2026-05-07 17:15 43.89148 144.16142 124 ft 4 kts 287°
2026-05-07 17:15 43.89122 144.16065 124 ft 17 kts 206°
2026-05-07 17:15 43.88962 144.16063 124 ft 26 kts 175°
2026-05-07 17:16 43.88782 144.16086 124 ft 26 kts 174°
2026-05-07 17:16 43.88607 144.16110 124 ft 24 kts 174°
2026-05-07 17:16 43.88445 144.16132 124 ft 23 kts 174°
2026-05-07 17:16 43.88309 144.16144 124 ft 14 kts 194°
2026-05-07 17:17 43.88268 144.16082 124 ft 0 kts 256°